Tracking 20037 objects as of 17-Nov-2019
Live streaming from Space Station
objects crossing your sky now

KX-09

Track KX-09 now!
10-day predictions


NORAD ID: 44520
Int'l Code: 2019-058B
Perigee: 597.7 km
Apogee: 615.9 km
Inclination: 97.8 °
Period: 96.7 minutes
Semi major axis: 6977 km
RCS: Unknown
Launch date: August 30, 2019
Source: People's Republic of China (PRC)
Launch site: Jiuquan Satellite Launch Center, China (JSC)
aabbcc
Your satellite tracking list
Your tracking list is empty




NASA's NSSDC Master Catalog

Two Line Element Set (TLE):
1 44520U 19058B   19321.23090096  .00000132  00000-0  19714-4 0  9995
2 44520  97.7902 325.9327 0013049  37.6301 322.5831 14.89433939 11659
Source of the keplerian elements: AFSPC